Flag for U.S.A. Weather past 2 weeks in Simi Valley, California, U.S.A.

Now
78 °F

Sunny.


Feels Like: 79 °F
Forecast: 62 / 82 °F
Wind: 5 mph from Southwest

Location: Van Nuys Airport

Current Time: Jul 3, 2015 at 9:23:55 PM

Latest Report: Jul 3, 2015 at 8:51 PM


Visibility: 10 mi

Pressure: 29.82 "Hg

Humidity: 39%

Dew point: 51 °F

Location of Simi ValleyLocation

Historic Weather in Simi Valley — Graph

°F

Simi Valley temperature yesterday

Maximum temperature yesterday: 92 °F (at 3:51 PM)
Minimum temperature yesterday: 72 °F (at 5:51 AM)
Average temperature yesterday: 81 °F

Past Weeks' High & Low Weather Summary

 TemperatureHumidityPressure
High101 °F (Jun 28, 1:51 PM)81% (Jun 21, 6:51 AM)30.01 "Hg (Jun 21, 6:51 AM)
Low63 °F (Jun 19, 5:51 AM)16% (Jun 24, 4:51 PM)29.76 "Hg (Jun 19, 5:51 PM)
Average79 °F44%29.87 "Hg
* Reported Jun 18 7:51 PM — Jul 3 7:51 PM, Simi Valley, Weather by CustomWeather, © 2015

Note: Actual official high and low records may vary slightly from our data, if they occured in-between our weather recording intervals... More about our weather records

Advertising

Simi Valley weather history for previous 24 hours

 ConditionsComfort  
Time TempWeatherWind HumidityBarometerVisibility
7:51 PM
Fri, Jul 3
82 °FSunny.7 mph33%29.80 "Hg10 mi
6:51 PM83 °FSunny.7 mph44%29.79 "Hg10 mi
5:51 PM88 °FSunny.7 mph36%29.79 "Hg10 mi
4:51 PM90 °FSunny.9 mph32%29.80 "Hg10 mi
3:51 PM90 °FSunny.9 mph32%29.81 "Hg10 mi
2:51 PM90 °FSunny.9 mph33%29.84 "Hg10 mi
1:51 PM91 °FSunny.12 mph33%29.86 "Hg10 mi
12:51 PM87 °FSunny.5 mph35%29.88 "Hg10 mi
11:51 AM83 °FSunny.9 mph43%29.92 "Hg10 mi
10:58 AM80 °FScattered clouds.8 mph49%29.96 "Hg10 mi
9:51 AM78 °FSunny.9 mph50%29.93 "Hg10 mi
8:51 AM74 °FSunny.6 mph62%29.94 "Hg10 mi
7:51 AM70 °FSunny.3 mph68%29.93 "Hg10 mi
6:51 AM66 °FSunny.No wind78%29.93 "Hg10 mi
5:51 AM66 °FClear.3 mph81%29.92 "Hg10 mi
4:51 AM67 °FClear.3 mph79%29.92 "Hg10 mi
3:51 AM68 °FClear.3 mph76%29.91 "Hg10 mi
2:51 AM69 °FClear.No wind73%29.91 "Hg10 mi
1:51 AM70 °FClear.5 mph71%29.91 "Hg10 mi
12:51 AM71 °FClear.No wind68%29.91 "Hg10 mi
11:51 PM
Thu, Jul 2
72 °FClear.6 mph66%29.92 "Hg10 mi
10:51 PM75 °FClear.5 mph58%29.91 "Hg10 mi
9:51 PM77 °FClear.No wind52%29.90 "Hg10 mi
Weather by CustomWeather, © 2015

See weather overviewHow to use our weather pages